Location: Branche des Alpilles
(43.6087°N, 4.6976°E)
Time: 05:55:55
(UTC+00:00)

H-2A R/B - Pass Details

Date: 30 November 2020
Orbit: 734 x 836 km, 98.2° (Epoch: 27 January)

Event Time Altitude Azimuth Distance (km) Brightness Sun altitude
Rises 19:39:04 0° 199° (SSW) 3,325 5.5 -37.9°
Enters shadow 19:40:00 - 203° (SSW) 2,996 5.2 -38.1°
Exits shadow 19:47:17 22° 287° (WNW) 1,675 4.2 -39.4°
Drops below altitude 10° 19:50:12 10° 320° (NW) 2,343 4.9 -39.9°
Sets 19:52:57 0° 334° (NNW) 3,257 5.6 -40.4°
